Notices

What's New in latest Release from April 7th, 2021:

- Updated Glossary, including Speed of Maximum Gust, and Total Hourly Precipitation

- Updated national and regional climate services offices contacts and prices information

- Addition of station inventory lists for 1981-2010, 1971-2000, and 1961-1990 Normals.

If you haven't already, please take our survey and provide feedback about our website: https://eccc.sondage-survey.ca/f/LanguageSelection.aspx?s=442ca660-fcf1-47c0-95a9-59707d6fd709

Hourly Data Report for August 19, 2015

IQALUIT CLIMATE
NUNAVUT

63°44'50.000" N
68°32'40.000" W
33.50 m
2402592
71321
XFB

Download Data

Hourly Data (August 2015)
Hourly Data Report for August 19, 2015
TIME
LST
Temp Definition
°C
Dew Point Definition
°C
Rel Hum Definition
%
Precip. Amount Definition
mm

Wind Dir Definition
10's deg

Wind Spd Definition
km/h
Visibility Definition
km
Stn Press Definition
kPa
Hmdx Definition


Wind Chill Definition


Weather Definition


00:00 4.8 0.4 73 0.0 27 12   100.44     LegendNANA
01:00 4.6 0.1 73 0.0 31 13   100.49     LegendNANA
02:00 2.1 -0.5 83 0.0 34 9   100.55     LegendNANA
03:00 3.3 -0.5 76 0.0 25 11   100.60     LegendNANA
04:00 3.0 0.1 81 0.0 9 5   100.59     LegendNANA
05:00 2.9 0.3 83 0.0 13 8   100.61     LegendNANA
06:00 3.8 0.5 79 0.0 13 7   100.66     LegendNANA
07:00 5.8 1.3 73 0.0 25 18   100.68     LegendNANA
08:00 6.7 1.8 71 0.0 26 16   100.69     LegendNANA
09:00 7.1 0.5 63 0.0 29 24   100.77     LegendNANA
10:00 7.1 0.0 61 0.0 30 23   100.82     LegendNANA
11:00 8.4 -0.6 53 0.0 30 23   100.84     LegendNANA
12:00 7.0 2.3 72 0.0 33 27   100.89     LegendNANA
13:00 9.0 2.6 64 0.0 32 27   100.94     LegendNANA
14:00 7.5 2.4 70 0.0 32 32   101.04     LegendNANA
15:00 8.2 2.8 69 0.0 34 24   101.13     LegendNANA
16:00 8.3 0.8 59 0.0 31 32   101.21     LegendNANA
17:00 8.5 1.7 62 0.0 32 28   101.28     LegendNANA
18:00 7.7 1.8 66 0.0 33 25   101.38     LegendNANA
19:00 6.3 1.7 72 0.0 33 20   101.45     LegendNANA
20:00 4.0 0.9 81 0.0 33 11   101.52     LegendNANA
21:00 3.8 1.4 84 0.0 14 2   101.58     LegendNANA
22:00 2.5 0.9 89 0.0 2 2   101.61     LegendNANA
23:00 2.6 0.6 87 0.0 35 2   101.65     LegendNANA

Notes on Data Quality.

Legend

  • E = Estimated
  • M = Missing
  • NA = Not Available*
  • [empty] = Indicates an unobserved value
Date modified: